ONEWEB-0532 (55140 NORAD) Tracking and Keplerian Element Data

This shows tracking and keplerian element data for the satellite.

Feedback or suggestion? Click here.




ElementValue
Catalog55140
NameONEWEB-0532
Epoch Orbit1123
Epoch Day85.17149709
Epoch Year2023
RAAN253.6036
Inclination86.6254
Eccentricity0.0005192
Argument of Perigee335.6468
Mean Anonmoly24.4499
Mean Motion14.65664126
Decay Rate6.232E-05
L11 55140U 23004A 23085.17149709 .00006232 00000+0 11420-2 0 9992
L22 55140 86.6254 253.6036 0005192 335.6468 24.4499 14.65664126 11235



Live tracking and technical data element details for ONEWEB-0532 (NORAD 55140). ONEWEB-0532 can be tracked NOW for your location showing map with azimuth and elevation plus other details from your city location.







IsCatalogInMostPopularTable: catalog: 55140, numindb: 10
Update: records affected: 1



GetName: 55140 ONEWEB-0532

Hit Count: updated at: Mon, 27 Mar 2023 07:01:54 GMT